STARLINK-3749, 52313

Orbit data source: Space-Track

STARLINK-3749, 52313 is a payload satellite owned by SpaceX/Seattle (US) in LEO that was launched on Thu, 21 Apr 2022 UTC via an FALCON 9 launch vehicle from the Air Force Eastern Test Range (AFETR). Payload-class satellites include a variety of spacecraft equipped with specific instruments for various scientific and technological missions. These include communications satellites like Starlink; space stations such as the ISS; scientific satellites like the Hubble; Earth observation satellites from companies like Planet Labs, Umbra, and HawkEye 360; GPS; miniature CubeSats for education and research; and military/defense satellites.

Loading next visibility...
Identifier
52313, 2022-041BE
Orbit
LEO
Country
Flag of USUS
Related business
Manufacturer
SpaceX/Seattle
Mission
Operational Commercial Communications
Bus & Motor
STARLINK, Unknown motor
Mass
297 kg wet, ~275 kg dry
Launch date (UTC)
2022-04-21 (4 years ago)
Launch vehicle
FALCON 9
Launch site
Air Force Eastern Test Range (AFETR)
Object type
Payload
Rocket body
Debris
Shape & HBR
Box + 1 Pan, 10.1 m
Radar Cross Section
11.087 m², Large (>1 m²)

Expand to show TLE details & history
Last TLE update: 15 hours ago

TLE from 15 hours ago
0 STARLINK-3749
1 52313U 22041BE  26236.86665978 -.00000505  00000-0 -40164-5 0  9999
2 52313  53.1623  46.1948 0000995  73.4732 286.6379 15.33548275241367
Epoch: 2026-08-24T20:47Z
TLE epoch observation values (Epoch: 2026-08-24T20:47:59.404Z)
Latitude
-0.00009°
Longitude
121.055°
Altitude
465.942 km
Speed
7.635 km/s
True Right ascension
03h 04m 46s
True Declination
0° 00' 00"
Sunlit
Object was in daylight at epoch
Visualization orbit readout
Latitude
Unknown
Longitude
Unknown
Altitude
Unknown
Speed
Unknown
Apparent Right ascension
Unknown
Apparent Declination
Unknown
Sunlit
N/A
Visualization observer readout
Local Sidereal Time
02:50:44
Azimuth
Unknown
Elevation
Unknown
Doppler factor
Unknown
Orbital elements
Apogee altitude
466.173 km
Perigee altitude
464.811 km
Semi-major axis
6,843.629 km
Eccentricity
0.0001
Inclination
53.1623°
RAAN
46.1948°
Arg. of periapsis
73.4732°
True anomaly
286.62698°
Mean anomaly
286.6379°
Eccentric anomaly
286.63244°
Mean motion
3.83366 °/min
Orbital period
93.91 mins
BSTAR
-0.0000040164
Loading maneuver chart data...
Computing Atmospheric mass density...
Loading historical data...
Loading historical data...
Loading historical data...
Loading historical data...
Loading historical data...
Loading historical data...
Loading historical data...

Documentation

Showing up to 5 results
|